Location: Newark
(46.7000°N, 60.6000°W)
Time: 12:45:21
(UTC+00:00)

A-11 Canister half - Pass Details

Date: 30 October 2020
Orbit: 1525 x 1684 km, 47.3° (Epoch: 01 December)

Event Time Altitude Azimuth Distance (km) Brightness Sun altitude
Rises 23:40:24 0° 291° (WNW) 4,707 12.7 -29.8°
Reaches altitude 10° 23:43:33 10° 287° (WNW) 3,710 11.9 -30.3°
Maximum altitude 23:52:26 52° 214° (SW) 1,837 9.4 -31.8°
Enters shadow 23:55:06 41° 171° (S) 2,077 9.4 -32.2°
Drops below altitude 10° 00:01:19 10° 142° (SE) 3,697 - -33.3°
Sets 00:04:27 0° 137° (SE) 4,689 - -33.8°
